Regional Weather Roundup
Issued by NWS

Home | Current Version | Previous Version | Text Only | Print | Product List | Glossary On
Versions: 1 2 3 4 5 6 7 8 9 10 11 12 13 14 15 16 17 18 19 20 21 22 23 24 25 26 27 28 29 30 31 32 33 34 35 36 37 38 39 40 41 42 43 44 45 46 47 48 49 50
000
ASUS43 KLSX 180307
RWRMO

WEATHER SUMMARY FOR MISSOURI
NATIONAL WEATHER SERVICE SPRINGFIELD MO
900 PM CST WED JAN 17 2018

NOTE: "FAIR" INDICATES FEW OR NO CLOUDS BELOW 12,000 FEET WITH NO
       SIGNIFICANT WEATHER AND/OR OBSTRUCTIONS TO VISIBILITY.
       CURRENT SKY AND/OR WEATHER CONDITIONS ARE NOT AVAILABLE FOR
       CHILLICOTHE AND FARMINGTON.

MOZ001>031-035>038-043-044-053-054-180400-
...NORTHERN AND WESTERN MISSOURI...

CITY           SKY/WX    TMP DP  RH WIND       PRES   REMARKS
KANSAS CTY INT CLOUDY    18  10  71 SW13      30.44F WCI   5
KANSAS C DTWN  CLOUDY    19  10  68 S8        30.47F WCI   9
LEE`S SUMMIT   CLOUDY    16   9  74 SW12      30.46F WCI   3
ST JOSEPH      CLOUDY    18  11  74 S10       30.44F WCI   6
CHILLICOTHE      N/A     17   9  70 S8        30.45F WCI   7
KIRKSVILLE     CLOUDY    17  11  77 SW12      30.41F WCI   4

$$
MOZ066>068-077>081-088>096-101>105-180400-
...SOUTHWEST MISSOURI...

CITY           SKY/WX    TMP DP  RH WIND       PRES   REMARKS
SPRINGFIELD    CLOUDY     8   1  73 CALM      30.50F
JOPLIN         CLOUDY    14   9  80 S8        30.53F WCI   3
BRANSON        CLEAR     16   5  62 CALM      30.53F

$$
MOZ032>034-039>042-045>050-055>058-069>072-180400-
...CENTRAL MISSOURI...

CITY           SKY/WX    TMP DP  RH WIND       PRES   REMARKS
COLUMBIA       CLOUDY    14   7  73 SW10      30.49F WCI   1
JEFFERSON CITY CLOUDY    20   9  62 SW6       30.53F WCI  12
ROLLA          CLOUDY    16   7  67 SW8       30.50F WCI   5
SEDALIA        CLOUDY    19  10  68 SW13      30.49F WCI   6
WHITEMAN AFB   CLEAR     16   7  67 SW12      30.44F WCI   3
WARRENSBURG    CLOUDY    16  10  79 S10       30.50S WCI   3
OSAGE BEACH    CLOUDY    17   8  67 SW6       30.52F WCI   9

$$
MOZ051-052-059>065-180400-
...EAST CENTRAL MISSOURI...

CITY           SKY/WX    TMP DP  RH WIND       PRES   REMARKS
ST LOUIS INTL  CLOUDY    20  10  65 SW7       30.52F WCI  11
SPIRIT OF STL  CLOUDY    15   8  73 CALM      30.51F
ST CHARLES     CLOUDY    17   8  67 SW6       30.52F WCI   9

$$
MOZ072>076-082>087-097>100-106>115-180400-
...SOUTH CENTRAL AND SOUTHEAST MISSOURI...

CITY           SKY/WX    TMP DP  RH WIND       PRES   REMARKS
CAPE GIRARDEAU FAIR       9   5  84 CALM      30.60F
FARMINGTON     CLOUDY    14   4  64 CALM      30.52F
POPLAR BLUFF   FAIR      10   7  87 CALM      30.59F
WEST PLAINS    CLOUDY    16   5  62 SW5       30.52F WCI   9

$$


USA.gov is the U.S. government's official web portal to all federal, state and local government web resources and services.